Location: West Sayville
(40.7279°N, 73.0976°W)
Time: 14:54:11
(UTC+00:00)

Daily predictions for brighter satellites

Satellite Brightness Start Highest point End
(mag) Time Altitude Azimuth Time Altitude Azimuth Time Altitude Azimuth
Cosmos 1726 Rocket 3.5 22:14:45 10° S 22:19:03 72° E 22:23:26 10° NNE
Okean O Rocket 1.6 22:14:48 10° SSE 22:19:09 80° ENE 22:23:31 10° N
SL-4 R/B 3.8 22:17:56 10° NNW 22:20:06 15° N 22:22:20 10° NE
Cosmos 44 4.1 22:16:25 10° SW 22:20:45 48° NW 22:25:22 10° NNE
Cosmos 1346 Rocket 4.3 22:19:39 10° NNE 22:22:17 17° ENE 22:24:54 10° ESE
Cosmos 2058 4.3 22:22:28 10° NNE 22:25:15 18° ENE 22:28:02 10° ESE
BREEZE-M R/B 4.5 22:23:49 10° NW 22:27:01 28° NNE 22:32:32 10° ENE
Cosmos 1758 Rocket 4.4 22:22:53 10° NNW 22:27:10 55° W 22:31:23 10° S
Atlas Centaur 2 4.0 22:22:10 10° SW 22:29:22 37° S 22:37:01 10° ESE
NOAA 11 4.2 22:24:48 10° SSE 22:30:08 59° ENE 22:35:28 10° N
YAOGAN 6 3.8 22:27:19 10° S 22:30:52 49° W 22:34:28 10° NNW
Cosmos 1315 Rocket 4.1 22:28:22 10° SE 22:31:16 20° E 22:34:11 10° NE
Cosmos 1606 Rocket 4.3 22:31:20 10° SSW 22:35:37 57° W 22:39:59 10° N
Aureole 3 2.5 22:33:53 10° S 22:37:00 65° E 22:39:57 10° NNE
Cosmos 1992 Rocket 4.5 22:32:46 10° S 22:37:32 38° ESE 22:42:21 10° NE
CORIOLIS 4.3 22:33:04 10° S 22:38:25 81° WSW 22:43:48 10° NNW
Cosmos 220 Rocket 4.4 22:35:30 10° S 22:39:34 41° ESE 22:43:43 10° NNE
Cosmos 1980 Rocket 3.3 22:36:29 10° SSE 22:40:39 22° E 22:44:48 10° NE
Cosmos 1455 3.3 22:37:42 10° SE 22:40:45 23° E 22:43:49 10° NE
USA 305 4.0 22:40:15 10° NNW 22:44:00 28° NNE 22:46:41 16° ENE
CZ-2C R/B 4.0 22:40:21 10° SE 22:45:16 30° ENE 22:50:05 10° N
Cosmos 2297 Rocket 2.2 22:39:37 10° NNW 22:45:18 70° ENE 22:50:56 10° SSE
In-Cosmos 22 Rocket 4.1 22:41:46 10° N 22:47:07 62° ENE 22:52:33 10° SSE
SKYMED 2 3.6 22:45:25 10° NNE 22:49:44 60° E 22:54:00 10° S
USA 306 3.9 22:46:44 10° NW 22:50:33 30° NNE 22:52:56 18° ENE
Okean-O 3.1 22:52:41 10° SE 22:56:47 39° ENE 23:00:55 10° N
Meteor 2-10 Rocket 3.6 22:52:09 10° S 22:57:18 55° E 23:02:19 10° NNE
SeaSat 1 4.2 23:00:01 14° NE 23:00:14 14° NE 23:02:37 10° NNE
Cosmos 1553 Rocket 4.0 22:55:38 10° S 23:01:59 81° E 23:08:16 10° N
Cosmos 1689 Rocket 1.8 23:00:00 10° NNE 23:02:53 85° ESE 23:05:45 10° SSW
Cosmos 1408 2.9 22:59:49 10° N 23:03:18 40° ENE 23:06:48 10° SSE
Meteor 2-15 4.4 22:57:43 10° S 23:03:47 67° E 23:09:53 10° NNE
Cosmos 2360 4.4 22:58:53 10° S 23:04:23 52° ESE 23:09:56 10° NNE
H-2A R/B 2.9 22:59:49 10° SE 23:04:27 30° ENE 23:09:08 10° N
MOS 1 Rocket 4.0 23:04:05 10° NNE 23:08:27 33° E 23:13:00 10° SSE
Cosmos 44 Rocket 3.3 23:08:25 10° SSW 23:13:03 57° ESE 23:16:15 20° NE
Cosmos 2058 Rocket 4.3 23:09:49 10° SSW 23:14:06 45° WNW 23:18:27 10° N
Cosmos 2278 4.0 23:09:01 10° S 23:14:22 44° ESE 23:18:42 15° NE
Lacrosse 5 3.9 23:13:37 10° NNW 23:16:04 13° N 23:17:47 12° NNE
Cosmos 2219 3.9 23:13:32 10° NNW 23:19:11 59° WSW 23:24:48 10° S
Cosmos 1892 3.0 23:18:08 10° NNW 23:22:01 69° W 23:25:51 10° S
Cosmos 1939 Rocket 3.4 23:18:50 10° S 23:22:44 58° W 23:26:37 10° NNW
ARGOS 3.8 23:21:55 30° E 23:22:56 32° ENE 23:27:42 10° N
Cosmos 1076 Rocket 3.4 23:21:01 10° N 23:25:14 59° E 23:29:25 10° SSE
Cosmos 968 Rocket 3.6 23:20:46 10° NNW 23:25:58 74° WSW 23:31:06 10° S
Cosmos 2082 3.6 23:20:38 10° NNW 23:26:22 69° ENE 23:31:56 11° SSE
CZ-4B R/B 4.4 23:25:10 10° NNW 23:27:06 15° WNW 23:29:01 10° WSW
Cosmos 1745 Rocket 4.0 23:25:19 10° N 23:31:40 89° E 23:38:01 10° S
NOSS 3-3 (A) 4.2 23:26:41 10° SW 23:32:24 68° NW 23:38:33 11° NNE
NOSS 3-3 (C) 4.1 23:26:47 10° SW 23:32:31 69° NW 23:38:37 12° NNE
USA 307 3.0 23:30:23 10° NW 23:34:37 56° NE 23:35:04 53° ENE
Cosmos 1825 2.0 23:33:13 10° N 23:37:00 70° E 23:37:06 70° E
COSMO-SKYMED 1 4.0 23:33:39 10° N 23:37:42 39° WNW 23:41:44 10° SW
Cosmos 2369 3.8 23:33:10 10° SSW 23:38:52 75° WNW 23:44:36 10° NNE
USA 308 2.9 23:35:22 10° NW 23:39:37 61° NE 23:39:51 59° ENE
GPS 2-04 Rocket1 3.6 23:37:18 10° WSW 23:41:03 36° S 23:41:13 36° SSE
Helios 1A Rocket 3.5 23:37:18 10° S 23:41:21 56° WSW 23:45:24 10° NNW
DELTA 2 R/B(2) 4.4 23:35:30 10° W 23:41:38 78° S 23:41:41 77° SSE
CSL-04 Rocket 3.6 23:39:13 11° SSE 23:44:33 66° ENE 23:50:01 10° N
OAO 2 Rocket 3.9 23:41:17 10° WSW 23:45:59 43° S 23:46:58 38° SSE
YAOGAN 1 2.7 23:43:02 10° S 23:47:21 74° WSW 23:51:41 10° NNW
ATLAS 2AS CENTAUR R/B 3.4 23:40:58 10° NNW 23:47:45 35° NE 23:48:38 34° NE
Cosmos 2227 Rocket 3.4 23:44:26 10° NW 23:49:43 42° WSW 23:55:00 10° S
CZ-4 R/B 2.1 23:47:40 10° S 23:51:27 50° W 23:55:14 10° NNW
Cosmos 2263 Rocket 3.3 23:46:36 10° N 23:50:16 28° NNE 23:50:16 28° NNE
Cosmos 1812 Rocket 4.1 23:49:59 10° SSW 23:54:19 59° W 23:58:39 10° N
